カタログに戻る

FENGYUN 1C DEB

運用中PO
NORAD 31346·DEBRIS·🇨🇳 China

打ち上げ May 10, 1999 から Taiyuan Satellite Launch Center

Loading…

次のパス (今後24時間)

TLE

最新Source: Space-Track

元期: Sep 14, 2026, 06:33 UTC

1 31346U 99025BRA 26257.27295409  .00010147  00000-0  41802-3 0  9993
2 31346  98.8768 275.7858 0091103 172.7087 187.5494 15.20567555 36618

AllMySatでFENGYUN 1C DEBをリアルタイム追跡

Download on the App Store